Location: Ocean City
(38.3360°N, 75.0850°W)
Time: 09:34:22
(UTC-04:00)

Max Valier Satellite - Pass Details

Date: 30 May 2019
Orbit: 492 x 507 km, 97.4° (Epoch: 19 June)

Event Time Altitude Azimuth Distance (km) Brightness Sun altitude
Exits shadow 23:01:12 12° 247° (WSW) 1,572 ? -23.9°
Maximum altitude 23:02:23 14° 267° (W) 1,487 ? -24.0°
Drops below altitude 10° 23:04:21 10° 300° (WNW) 1,718 ? -24.2°
Sets 23:07:20 0° 326° (NNW) 2,612 ? -24.4°
